Wetterdaten: Montag, 09.12.2013
Datum Zeit Temperatur Luftfeuchte Luftdruck Regen Wind Richtung Richtung Taupunkt Windchill Windben
09.12.2013 00:00 -3,2 C 80 % 1030,1 hPa 0,0 l/m 1,3 km/h (1 Bft) O 90 -6,1 C -2,9 C 0,0 km/h (0 Bft)
09.12.2013 00:05 -4,2 C 79 % 1030,2 hPa 0,0 l/m 0,6 km/h (0 Bft) N-NO 22 -7,3 C -3,4 C 1,9 km/h (1 Bft)
09.12.2013 00:10 -4,6 C 79 % 1030,2 hPa 0,0 l/m 0,3 km/h (0 Bft) N-NW 337 -7,7 C -4,2 C 0,0 km/h (0 Bft)
09.12.2013 00:15 -4,8 C 80 % 1030,2 hPa 0,0 l/m 0,2 km/h (0 Bft) N-NW 337 -7,7 C -4,5 C 0,0 km/h (0 Bft)
09.12.2013 00:20 -3,5 C 83 % 1030,2 hPa 0,0 l/m 1,1 km/h (1 Bft) O-NO 67 -6,0 C -4,7 C 6,0 km/h (2 Bft)
09.12.2013 00:25 -4,3 C 82 % 1030,3 hPa 0,0 l/m 1,3 km/h (1 Bft) O-SO 112 -6,9 C -4,6 C 0,0 km/h (0 Bft)
09.12.2013 00:29 -4,8 C 82 % 1030,3 hPa 0,0 l/m 0,5 km/h (0 Bft) NO 45 -7,4 C -4,8 C 0,0 km/h (0 Bft)
09.12.2013 00:30 -4,5 C 83 % 1030,3 hPa 0,0 l/m 0,8 km/h (0 Bft) SO 135 -6,9 C -4,7 C 0,0 km/h (0 Bft)
09.12.2013 00:35 -4,6 C 84 % 1030,3 hPa 0,0 l/m 1,6 km/h (1 Bft) O 90 -6,9 C -4,7 C 6,6 km/h (2 Bft)
09.12.2013 00:40 -3,5 C 85 % 1030,4 hPa 0,0 l/m 2,6 km/h (1 Bft) O 90 -5,6 C -4,6 C 7,6 km/h (2 Bft)
09.12.2013 00:45 -2,3 C 87 % 1030,4 hPa 0,0 l/m 5,6 km/h (1 Bft) O 90 -4,2 C -5,2 C 7,1 km/h (2 Bft)
09.12.2013 00:50 -2,1 C 86 % 1030,4 hPa 0,0 l/m 6,4 km/h (2 Bft) SO 135 -4,1 C -4,7 C 10,8 km/h (2 Bft)
09.12.2013 00:55 -1,4 C 86 % 1030,4 hPa 0,0 l/m 7,6 km/h (2 Bft) N-NW 337 -3,4 C -5,8 C 13,7 km/h (3 Bft)
09.12.2013 01:00 -1,0 C 85 % 1030,1 hPa 0,0 l/m 8,2 km/h (2 Bft) O-SO 112 -3,2 C -6,2 C 12,1 km/h (2 Bft)
09.12.2013 01:05 -0,9 C 83 % 1030,1 hPa 0,0 l/m 8,4 km/h (2 Bft) O-SO 112 -3,4 C -6,0 C 7,7 km/h (2 Bft)
09.12.2013 01:10 -0,9 C 83 % 1030,1 hPa 0,0 l/m 8,4 km/h (2 Bft) O-SO 112 -3,4 C -6,0 C 17,4 km/h (3 Bft)
09.12.2013 01:15 -0,6 C 81 % 1030,1 hPa 0,0 l/m 9,7 km/h (2 Bft) O-SO 112 -3,4 C -7,4 C 16,3 km/h (3 Bft)
09.12.2013 01:20 -0,8 C 79 % 1030,1 hPa 0,0 l/m 9,3 km/h (2 Bft) SO 135 -4,0 C -6,9 C 7,4 km/h (2 Bft)
09.12.2013 01:25 -1,0 C 78 % 1030,1 hPa 0,0 l/m 8,9 km/h (2 Bft) O-SO 112 -4,3 C -6,5 C 10,8 km/h (2 Bft)
09.12.2013 01:30 -1,2 C 78 % 1030,1 hPa 0,0 l/m 7,4 km/h (2 Bft) O-SO 112 -4,5 C -4,7 C 9,0 km/h (2 Bft)
09.12.2013 01:35 -1,2 C 78 % 1030,1 hPa 0,0 l/m 7,1 km/h (2 Bft) O-SO 112 -4,5 C -4,3 C 9,8 km/h (2 Bft)
09.12.2013 01:40 -1,5 C 78 % 1030,1 hPa 0,0 l/m 7,6 km/h (2 Bft) O 90 -4,8 C -5,2 C 7,7 km/h (2 Bft)
09.12.2013 01:45 -1,5 C 78 % 1030,2 hPa 0,0 l/m 7,9 km/h (2 Bft) O-NO 67 -4,8 C -5,8 C 7,9 km/h (2 Bft)
09.12.2013 01:50 -0,8 C 78 % 1030,2 hPa 0,0 l/m 7,9 km/h (2 Bft) O-SO 112 -4,1 C -5,8 C 13,0 km/h (3 Bft)
09.12.2013 01:55 -0,6 C 78 % 1030,2 hPa 0,0 l/m 7,9 km/h (2 Bft) O-SO 112 -3,9 C -5,5 C 6,1 km/h (2 Bft)
09.12.2013 02:00 -0,4 C 77 % 1030,2 hPa 0,0 l/m 7,9 km/h (2 Bft) O-SO 112 -3,9 C -5,3 C 7,4 km/h (2 Bft)
09.12.2013 02:05 -0,3 C 77 % 1029,8 hPa 0,0 l/m 7,2 km/h (2 Bft) O-SO 112 -3,8 C -4,0 C 5,8 km/h (2 Bft)
09.12.2013 02:10 0,0 C 76 % 1029,8 hPa 0,0 l/m 6,6 km/h (2 Bft) O-SO 112 -3,7 C -2,8 C 8,2 km/h (2 Bft)
09.12.2013 02:15 0,4 C 76 % 1029,8 hPa 0,0 l/m 6,4 km/h (2 Bft) SO 135 -3,3 C -2,3 C 6,9 km/h (2 Bft)
09.12.2013 02:20 0,2 C 75 % 1029,8 hPa 0,0 l/m 7,6 km/h (2 Bft) O-SO 112 -3,7 C -3,8 C 11,3 km/h (2 Bft)
09.12.2013 02:25 0,0 C 74 % 1029,7 hPa 0,0 l/m 8,0 km/h (2 Bft) O 90 -4,1 C -4,4 C 12,4 km/h (3 Bft)
09.12.2013 02:30 -0,3 C 75 % 1029,7 hPa 0,0 l/m 8,4 km/h (2 Bft) O 90 -4,2 C -5,0 C 8,0 km/h (2 Bft)
09.12.2013 02:35 -0,5 C 75 % 1029,7 hPa 0,0 l/m 8,0 km/h (2 Bft) O 90 -4,4 C -4,7 C 8,4 km/h (2 Bft)
09.12.2013 02:40 -0,4 C 76 % 1029,7 hPa 0,0 l/m 7,2 km/h (2 Bft) O 90 -4,1 C -3,5 C 14,5 km/h (3 Bft)
09.12.2013 02:45 -0,5 C 76 % 1029,9 hPa 0,0 l/m 6,4 km/h (2 Bft) O 90 -4,2 C -2,3 C 5,0 km/h (1 Bft)
09.12.2013 02:50 -1,1 C 75 % 1029,9 hPa 0,0 l/m 4,3 km/h (1 Bft) NO 45 -5,0 C -1,8 C 4,3 km/h (1 Bft)
09.12.2013 02:55 -1,2 C 76 % 1029,9 hPa 0,0 l/m 3,4 km/h (1 Bft) O 90 -4,9 C -1,9 C 6,8 km/h (2 Bft)
09.12.2013 03:00 -0,4 C 77 % 1029,9 hPa 0,0 l/m 4,7 km/h (1 Bft) O-SO 112 -3,9 C -2,4 C 8,2 km/h (2 Bft)
09.12.2013 03:05 -0,2 C 77 % 1029,8 hPa 0,0 l/m 6,1 km/h (2 Bft) O-SO 112 -3,7 C -2,9 C 7,7 km/h (2 Bft)
09.12.2013 03:10 -0,2 C 76 % 1029,8 hPa 0,0 l/m 6,3 km/h (2 Bft) O-SO 112 -3,9 C -2,7 C 7,1 km/h (2 Bft)
09.12.2013 03:15 -0,2 C 76 % 1029,8 hPa 0,0 l/m 6,6 km/h (2 Bft) O-SO 112 -3,9 C -3,1 C 7,2 km/h (2 Bft)
09.12.2013 03:20 0,0 C 76 % 1029,8 hPa 0,0 l/m 7,1 km/h (2 Bft) O-SO 112 -3,7 C -3,6 C 6,1 km/h (2 Bft)
09.12.2013 03:25 0,1 C 76 % 1029,7 hPa 0,0 l/m 6,6 km/h (2 Bft) O-SO 112 -3,6 C -2,8 C 7,9 km/h (2 Bft)
09.12.2013 03:30 -0,1 C 75 % 1029,7 hPa 0,0 l/m 7,1 km/h (2 Bft) O 90 -4,0 C -3,2 C 9,5 km/h (2 Bft)
09.12.2013 03:35 -0,2 C 75 % 1029,7 hPa 0,0 l/m 7,6 km/h (2 Bft) S 180 -4,1 C -3,8 C 7,4 km/h (2 Bft)
09.12.2013 03:40 -0,4 C 76 % 1029,7 hPa 0,0 l/m 6,3 km/h (2 Bft) O-SO 112 -4,1 C -2,3 C 4,3 km/h (1 Bft)
09.12.2013 03:45 -0,3 C 76 % 1029,7 hPa 0,0 l/m 6,4 km/h (2 Bft) O 90 -4,0 C -2,3 C 7,6 km/h (2 Bft)
09.12.2013 03:50 -0,2 C 76 % 1029,7 hPa 0,0 l/m 7,4 km/h (2 Bft) O-SO 112 -3,9 C -3,9 C 10,5 km/h (2 Bft)
09.12.2013 03:55 -0,6 C 75 % 1029,7 hPa 0,0 l/m 6,9 km/h (2 Bft) SO 135 -4,5 C -3,1 C 6,4 km/h (2 Bft)
09.12.2013 04:00 0,2 C 76 % 1029,7 hPa 0,0 l/m 7,4 km/h (2 Bft) SO 135 -3,5 C -3,9 C 7,2 km/h (2 Bft)
09.12.2013 04:05 0,3 C 75 % 1029,7 hPa 0,0 l/m 7,6 km/h (2 Bft) O 90 -3,6 C -4,2 C 8,2 km/h (2 Bft)
09.12.2013 04:10 0,4 C 74 % 1029,7 hPa 0,0 l/m 7,1 km/h (2 Bft) O-SO 112 -3,7 C -3,2 C 7,2 km/h (2 Bft)
09.12.2013 04:15 0,4 C 74 % 1029,7 hPa 0,0 l/m 6,9 km/h (2 Bft) O-SO 112 -3,7 C -2,8 C 7,7 km/h (2 Bft)
09.12.2013 04:20 -0,6 C 73 % 1029,7 hPa 0,0 l/m 6,9 km/h (2 Bft) SO 135 -4,8 C -2,8 C 9,7 km/h (2 Bft)
09.12.2013 04:25 -0,9 C 74 % 1029,6 hPa 0,0 l/m 6,6 km/h (2 Bft) O-NO 67 -4,9 C -2,8 C 7,1 km/h (2 Bft)
09.12.2013 04:30 -0,8 C 75 % 1029,6 hPa 0,0 l/m 6,6 km/h (2 Bft) O-SO 112 -4,7 C -2,9 C 9,7 km/h (2 Bft)
09.12.2013 04:35 -0,8 C 76 % 1029,6 hPa 0,0 l/m 7,4 km/h (2 Bft) O-SO 112 -4,5 C -4,1 C 7,9 km/h (2 Bft)
09.12.2013 04:40 -0,3 C 76 % 1029,6 hPa 0,0 l/m 8,5 km/h (2 Bft) SO 135 -4,0 C -5,5 C 8,4 km/h (2 Bft)
09.12.2013 04:45 -0,6 C 76 % 1029,6 hPa 0,0 l/m 7,9 km/h (2 Bft) NO 45 -4,3 C -4,6 C 6,3 km/h (2 Bft)
09.12.2013 04:50 -0,5 C 76 % 1029,6 hPa 0,0 l/m 6,6 km/h (2 Bft) O 90 -4,2 C -2,8 C 7,2 km/h (2 Bft)
09.12.2013 04:55 -0,5 C 76 % 1029,6 hPa 0,0 l/m 6,8 km/h (2 Bft) O-SO 112 -4,2 C -3,0 C 7,7 km/h (2 Bft)
09.12.2013 05:00 -0,8 C 76 % 1029,6 hPa 0,0 l/m 6,6 km/h (2 Bft) O-NO 67 -4,5 C -2,8 C 6,9 km/h (2 Bft)
09.12.2013 05:05 -1,3 C 75 % 1029,6 hPa 0,0 l/m 4,7 km/h (1 Bft) S-SO 157 -5,1 C -2,1 C 0,0 km/h (0 Bft)
09.12.2013 05:10 -3,2 C 74 % 1029,6 hPa 0,0 l/m 1,8 km/h (1 Bft) NO 45 -7,2 C -1,7 C 0,0 km/h (0 Bft)
09.12.2013 05:15 -3,3 C 75 % 1029,6 hPa 0,0 l/m 0,6 km/h (0 Bft) NO 45 -7,1 C -2,3 C 2,3 km/h (1 Bft)
09.12.2013 05:20 -4,2 C 76 % 1029,6 hPa 0,0 l/m 0,5 km/h (0 Bft) N-NW 337 -7,8 C -3,0 C 0,0 km/h (0 Bft)
09.12.2013 05:25 -4,5 C 76 % 1029,8 hPa 0,0 l/m 0,3 km/h (0 Bft) N-NW 337 -8,1 C -3,8 C 0,0 km/h (0 Bft)
09.12.2013 05:29 -4,5 C 77 % 1029,8 hPa 0,0 l/m 0,0 km/h (0 Bft) N 360 -7,9 C -4,4 C 0,0 km/h (0 Bft)
09.12.2013 05:30 -4,7 C 78 % 1029,8 hPa 0,0 l/m 0,0 km/h (0 Bft) N 360 -7,9 C -4,7 C 0,0 km/h (0 Bft)
09.12.2013 05:35 -5,0 C 78 % 1029,8 hPa 0,0 l/m 0,0 km/h (0 Bft) N 360 -8,2 C -5,0 C 0,0 km/h (0 Bft)
09.12.2013 05:40 -5,1 C 79 % 1029,7 hPa 0,0 l/m 0,0 km/h (0 Bft) N 360 -8,2 C -5,2 C 0,0 km/h (0 Bft)
09.12.2013 05:45 -5,1 C 79 % 1029,7 hPa 0,0 l/m 0,3 km/h (0 Bft) O-SO 112 -8,2 C -5,2 C 0,0 km/h (0 Bft)
09.12.2013 05:50 -5,3 C 79 % 1029,7 hPa 0,0 l/m 0,3 km/h (0 Bft) O 90 -8,4 C -5,3 C 0,0 km/h (0 Bft)
09.12.2013 05:55 -5,4 C 80 % 1029,7 hPa 0,0 l/m 0,0 km/h (0 Bft) O 90 -8,3 C -5,6 C 0,0 km/h (0 Bft)
09.12.2013 06:00 -5,6 C 81 % 1030,0 hPa 0,0 l/m 0,0 km/h (0 Bft) O 90 -8,3 C -5,7 C 0,0 km/h (0 Bft)
09.12.2013 06:05 -5,6 C 82 % 1030,0 hPa 0,0 l/m 0,0 km/h (0 Bft) O 90 -8,2 C -5,8 C 0,0 km/h (0 Bft)
09.12.2013 06:10 -5,5 C 82 % 1030,0 hPa 0,0 l/m 0,0 km/h (0 Bft) O 90 -8,1 C -5,8 C 0,0 km/h (0 Bft)
09.12.2013 06:15 -5,5 C 82 % 1030,0 hPa 0,0 l/m 0,0 km/h (0 Bft) O 90 -8,1 C -5,8 C 0,0 km/h (0 Bft)
09.12.2013 06:20 -5,3 C 83 % 1030,0 hPa 0,0 l/m 0,0 km/h (0 Bft) O-SO 112 -7,7 C -5,8 C 0,0 km/h (0 Bft)
09.12.2013 06:25 -5,5 C 83 % 1030,0 hPa 0,0 l/m 0,0 km/h (0 Bft) O-SO 112 -7,9 C -5,7 C 0,0 km/h (0 Bft)
09.12.2013 06:30 -5,6 C 83 % 1030,0 hPa 0,0 l/m 0,0 km/h (0 Bft) SO 135 -8,0 C -5,7 C 0,0 km/h (0 Bft)
09.12.2013 06:35 -5,5 C 83 % 1030,0 hPa 0,0 l/m 0,0 km/h (0 Bft) SO 135 -7,9 C -5,6 C 0,0 km/h (0 Bft)
09.12.2013 06:40 -5,5 C 84 % 1030,0 hPa 0,0 l/m 0,6 km/h (0 Bft) O 90 -7,8 C -5,5 C 2,1 km/h (1 Bft)
09.12.2013 06:45 -5,3 C 84 % 1030,0 hPa 0,0 l/m 0,6 km/h (0 Bft) S-SO 157 -7,6 C -5,4 C 0,0 km/h (0 Bft)
09.12.2013 06:50 -4,5 C 85 % 1030,0 hPa 0,0 l/m 1,0 km/h (0 Bft) O 90 -6,6 C -5,5 C 4,3 km/h (1 Bft)
09.12.2013 06:55 -3,6 C 86 % 1030,0 hPa 0,0 l/m 2,1 km/h (1 Bft) O-NO 67 -5,6 C -5,2 C 6,1 km/h (2 Bft)
09.12.2013 07:00 -3,6 C 86 % 1030,0 hPa 0,0 l/m 3,7 km/h (1 Bft) O-NO 67 -5,6 C -5,9 C 7,1 km/h (2 Bft)
09.12.2013 07:05 -3,4 C 86 % 1030,2 hPa 0,0 l/m 4,3 km/h (1 Bft) NO 45 -5,4 C -6,2 C 6,0 km/h (2 Bft)
09.12.2013 07:10 -4,9 C 84 % 1030,2 hPa 0,0 l/m 2,6 km/h (1 Bft) N-NO 22 -7,2 C -4,9 C 0,0 km/h (0 Bft)
09.12.2013 07:15 -5,4 C 83 % 1030,2 hPa 0,0 l/m 0,5 km/h (0 Bft) O 90 -7,8 C -4,8 C 1,8 km/h (1 Bft)
09.12.2013 07:20 -4,1 C 85 % 1030,2 hPa 0,0 l/m 1,9 km/h (1 Bft) O 90 -6,2 C -4,8 C 6,8 km/h (2 Bft)
09.12.2013 07:25 -3,7 C 85 % 1030,0 hPa 0,0 l/m 3,9 km/h (1 Bft) O 90 -5,8 C -5,9 C 5,5 km/h (1 Bft)
09.12.2013 07:30 -3,4 C 85 % 1030,0 hPa 0,0 l/m 4,5 km/h (1 Bft) W 270 -5,5 C -5,7 C 4,0 km/h (1 Bft)
09.12.2013 07:35 -3,2 C 85 % 1030,0 hPa 0,0 l/m 4,2 km/h (1 Bft) O 90 -5,4 C -5,4 C 6,6 km/h (2 Bft)
09.12.2013 07:40 -3,2 C 84 % 1030,0 hPa 0,0 l/m 2,9 km/h (1 Bft) O-NO 67 -5,5 C -4,4 C 3,4 km/h (1 Bft)
09.12.2013 07:45 -3,1 C 84 % 1030,1 hPa 0,0 l/m 3,5 km/h (1 Bft) NO 45 -5,4 C -4,8 C 4,7 km/h (1 Bft)
09.12.2013 07:50 -3,3 C 84 % 1030,1 hPa 0,0 l/m 2,6 km/h (1 Bft) NO 45 -5,6 C -4,1 C 0,0 km/h (0 Bft)
09.12.2013 07:55 -4,1 C 83 % 1030,1 hPa 0,0 l/m 1,1 km/h (1 Bft) O-SO 112 -6,5 C -3,8 C 0,0 km/h (0 Bft)
09.12.2013 08:00 -3,4 C 83 % 1030,1 hPa 0,0 l/m 2,1 km/h (1 Bft) O 90 -5,9 C -4,2 C 2,6 km/h (1 Bft)
09.12.2013 08:05 -3,3 C 83 % 1030,2 hPa 0,0 l/m 2,7 km/h (1 Bft) NO 45 -5,8 C -4,8 C 2,9 km/h (1 Bft)
09.12.2013 08:10 -4,5 C 81 % 1030,2 hPa 0,0 l/m 1,0 km/h (0 Bft) NO 45 -7,3 C -4,4 C 0,0 km/h (0 Bft)
09.12.2013 08:15 -4,7 C 81 % 1030,2 hPa 0,0 l/m 0,3 km/h (0 Bft) NO 45 -7,4 C -4,6 C 2,4 km/h (1 Bft)
09.12.2013 08:20 -4,3 C 82 % 1030,2 hPa 0,0 l/m 0,3 km/h (0 Bft) O-NO 67 -6,9 C -4,6 C 0,0 km/h (0 Bft)
09.12.2013 08:25 -4,4 C 82 % 1030,2 hPa 0,0 l/m 0,5 km/h (0 Bft) O-SO 112 -7,0 C -4,3 C 0,0 km/h (0 Bft)
09.12.2013 08:30 -4,6 C 81 % 1030,2 hPa 0,0 l/m 0,3 km/h (0 Bft) NO 45 -7,4 C -4,0 C 0,0 km/h (0 Bft)
09.12.2013 08:35 -3,7 C 83 % 1030,2 hPa 0,0 l/m 0,6 km/h (0 Bft) NO 45 -6,2 C -3,8 C 2,6 km/h (1 Bft)
09.12.2013 08:40 -2,9 C 83 % 1030,2 hPa 0,0 l/m 1,8 km/h (1 Bft) NO 45 -5,4 C -3,3 C 0,0 km/h (0 Bft)
09.12.2013 08:45 -2,8 C 83 % 1030,4 hPa 0,0 l/m 2,3 km/h (1 Bft) N-NO 22 -5,3 C -3,1 C 5,6 km/h (1 Bft)
09.12.2013 08:50 -2,8 C 82 % 1030,4 hPa 0,0 l/m 2,1 km/h (1 Bft) SO 135 -5,4 C -2,9 C 0,0 km/h (0 Bft)
09.12.2013 08:55 -2,9 C 82 % 1030,4 hPa 0,0 l/m 1,3 km/h (1 Bft) SO 135 -5,5 C -2,9 C 0,0 km/h (0 Bft)
09.12.2013 09:00 -3,2 C 80 % 1030,4 hPa 0,0 l/m 0,3 km/h (0 Bft) W 270 -6,1 C -2,9 C 3,7 km/h (1 Bft)
09.12.2013 09:05 -3,2 C 80 % 1030,5 hPa 0,0 l/m 0,6 km/h (0 Bft) N-NW 337 -6,1 C -2,9 C 3,5 km/h (1 Bft)
09.12.2013 09:10 -3,0 C 79 % 1030,5 hPa 0,0 l/m 1,1 km/h (1 Bft) S 180 -6,1 C -2,9 C 0,0 km/h (0 Bft)
09.12.2013 09:15 -3,1 C 79 % 1030,5 hPa 0,0 l/m 0,8 km/h (0 Bft) O-SO 112 -6,2 C -2,8 C 0,0 km/h (0 Bft)
09.12.2013 09:20 -2,4 C 79 % 1030,5 hPa 0,0 l/m 1,6 km/h (1 Bft) O-NO 67 -5,5 C -2,6 C 5,6 km/h (1 Bft)
09.12.2013 09:25 -2,6 C 79 % 1030,3 hPa 0,0 l/m 1,9 km/h (1 Bft) O 90 -5,7 C -2,3 C 0,0 km/h (0 Bft)
09.12.2013 09:30 -3,0 C 79 % 1030,3 hPa 0,0 l/m 1,0 km/h (0 Bft) N-NW 337 -6,1 C -2,3 C 0,0 km/h (0 Bft)
09.12.2013 09:35 -2,9 C 79 % 1030,3 hPa 0,0 l/m 0,3 km/h (0 Bft) N 360 -6,0 C -2,4 C 0,0 km/h (0 Bft)
09.12.2013 09:40 -2,6 C 79 % 1030,3 hPa 0,0 l/m 0,5 km/h (0 Bft) NO 45 -5,7 C -2,3 C 0,0 km/h (0 Bft)
09.12.2013 09:45 -2,6 C 79 % 1030,5 hPa 0,0 l/m 0,5 km/h (0 Bft) NO 45 -5,7 C -2,3 C 0,0 km/h (0 Bft)
09.12.2013 09:50 -2,8 C 78 % 1030,5 hPa 0,0 l/m 0,2 km/h (0 Bft) O 90 -6,1 C -2,3 C 2,7 km/h (1 Bft)
09.12.2013 09:55 -2,6 C 79 % 1030,5 hPa 0,0 l/m 0,6 km/h (0 Bft) O-SO 112 -5,7 C -2,2 C 0,0 km/h (0 Bft)
09.12.2013 10:00 -2,9 C 78 % 1030,5 hPa 0,0 l/m 0,5 km/h (0 Bft) N 360 -6,2 C -2,3 C 0,0 km/h (0 Bft)
09.12.2013 10:05 -2,9 C 78 % 1030,7 hPa 0,0 l/m 0,0 km/h (0 Bft) N 360 -6,2 C -2,4 C 0,0 km/h (0 Bft)
09.12.2013 10:10 -3,0 C 78 % 1030,7 hPa 0,0 l/m 0,0 km/h (0 Bft) N 360 -6,3 C -2,3 C 0,0 km/h (0 Bft)
09.12.2013 10:15 -2,9 C 79 % 1030,7 hPa 0,0 l/m 0,0 km/h (0 Bft) N 360 -6,0 C -2,3 C 0,0 km/h (0 Bft)
09.12.2013 10:20 -2,7 C 79 % 1030,7 hPa 0,0 l/m 0,2 km/h (0 Bft) N 360 -5,8 C -2,2 C 0,0 km/h (0 Bft)
09.12.2013 10:25 -2,6 C 79 % 1030,8 hPa 0,0 l/m 0,5 km/h (0 Bft) N-NO 22 -5,7 C -2,1 C 0,0 km/h (0 Bft)
09.12.2013 10:30 -2,3 C 79 % 1030,8 hPa 0,0 l/m 0,6 km/h (0 Bft) NO 45 -5,4 C -1,9 C 3,5 km/h (1 Bft)
09.12.2013 10:35 -1,7 C 79 % 1030,8 hPa 0,0 l/m 1,1 km/h (1 Bft) NO 45 -4,8 C -1,6 C 0,0 km/h (0 Bft)
09.12.2013 10:40 -1,6 C 78 % 1030,8 hPa 0,0 l/m 2,1 km/h (1 Bft) O-SO 112 -4,9 C -1,2 C 1,8 km/h (1 Bft)
09.12.2013 10:45 -1,3 C 78 % 1031,2 hPa 0,0 l/m 1,4 km/h (1 Bft) O-SO 112 -4,6 C -0,9 C 1,8 km/h (1 Bft)
09.12.2013 10:50 -0,5 C 77 % 1031,2 hPa 0,0 l/m 1,3 km/h (1 Bft) O 90 -4,0 C -0,4 C 0,0 km/h (0 Bft)
09.12.2013 10:55 0,2 C 77 % 1031,2 hPa 0,0 l/m 1,0 km/h (0 Bft) O 90 -3,3 C 0,3 C 3,7 km/h (1 Bft)
09.12.2013 11:00 1,1 C 76 % 1031,2 hPa 0,0 l/m 0,8 km/h (0 Bft) O 90 -2,6 C 1,5 C 0,0 km/h (0 Bft)
09.12.2013 11:05 1,5 C 74 % 1031,3 hPa 0,0 l/m 1,1 km/h (1 Bft) O-SO 112 -2,6 C 2,2 C 2,4 km/h (1 Bft)
09.12.2013 11:10 2,7 C 64 % 1031,3 hPa 0,0 l/m 2,1 km/h (1 Bft) S 180 -3,4 C 3,4 C 4,8 km/h (1 Bft)
09.12.2013 11:15 3,0 C 63 % 1031,3 hPa 0,0 l/m 3,2 km/h (1 Bft) S 180 -3,3 C 3,7 C 2,9 km/h (1 Bft)
09.12.2013 11:20 3,4 C 58 % 1031,3 hPa 0,0 l/m 4,3 km/h (1 Bft) O-SO 112 -4,1 C 3,9 C 7,2 km/h (2 Bft)
09.12.2013 11:25 3,7 C 55 % 1030,9 hPa 0,0 l/m 4,8 km/h (1 Bft) SO 135 -4,5 C 4,0 C 7,2 km/h (2 Bft)
09.12.2013 11:30 3,4 C 55 % 1030,9 hPa 0,0 l/m 5,6 km/h (1 Bft) S-SO 157 -4,8 C 3,8 C 5,3 km/h (1 Bft)
09.12.2013 11:35 3,3 C 54 % 1030,9 hPa 0,0 l/m 5,5 km/h (1 Bft) S-SO 157 -5,1 C 3,6 C 9,2 km/h (2 Bft)
09.12.2013 11:40 3,4 C 54 % 1030,8 hPa 0,0 l/m 5,8 km/h (2 Bft) SO 135 -5,0 C 3,3 C 5,8 km/h (2 Bft)
09.12.2013 11:45 3,4 C 53 % 1030,8 hPa 0,0 l/m 5,6 km/h (1 Bft) S 180 -5,3 C 3,6 C 8,2 km/h (2 Bft)
09.12.2013 11:50 3,4 C 54 % 1030,8 hPa 0,0 l/m 5,1 km/h (1 Bft) S-SW 202 -5,0 C 3,8 C 7,6 km/h (2 Bft)
09.12.2013 11:55 3,4 C 55 % 1030,8 hPa 0,0 l/m 4,7 km/h (1 Bft) S 180 -4,8 C 4,2 C 3,9 km/h (1 Bft)
09.12.2013 12:00 3,4 C 55 % 1030,9 hPa 0,0 l/m 3,4 km/h (1 Bft) SO 135 -4,8 C 4,8 C 0,0 km/h (0 Bft)
09.12.2013 12:05 3,6 C 52 % 1030,9 hPa 0,0 l/m 1,3 km/h (1 Bft) O-SO 112 -5,3 C 5,3 C 0,0 km/h (0 Bft)
09.12.2013 12:10 3,6 C 52 % 1030,9 hPa 0,0 l/m 1,3 km/h (1 Bft) O-SO 112 -5,3 C 5,3 C 0,0 km/h (0 Bft)
09.12.2013 12:15 3,8 C 54 % 1030,9 hPa 0,0 l/m 1,1 km/h (1 Bft) W-SW 247 -4,6 C 5,4 C 3,1 km/h (1 Bft)
09.12.2013 12:20 5,0 C 54 % 1030,9 hPa 0,0 l/m 2,1 km/h (1 Bft) S 180 -3,5 C 6,0 C 2,7 km/h (1 Bft)
09.12.2013 12:25 5,5 C 52 % 1030,9 hPa 0,0 l/m 3,5 km/h (1 Bft) S-SO 157 -3,6 C 6,4 C 7,6 km/h (2 Bft)
09.12.2013 12:30 5,9 C 48 % 1030,9 hPa 0,0 l/m 4,3 km/h (1 Bft) SW 225 -4,3 C 6,7 C 4,3 km/h (1 Bft)
09.12.2013 12:35 5,9 C 48 % 1030,9 hPa 0,0 l/m 5,1 km/h (1 Bft) S 180 -4,3 C 6,6 C 8,2 km/h (2 Bft)
09.12.2013 12:40 5,9 C 47 % 1030,9 hPa 0,0 l/m 6,1 km/h (2 Bft) S-SW 202 -4,5 C 6,1 C 8,0 km/h (2 Bft)
09.12.2013 12:45 5,8 C 47 % 1030,9 hPa 0,0 l/m 6,1 km/h (2 Bft) S 180 -4,6 C 5,9 C 5,1 km/h (1 Bft)
09.12.2013 12:50 5,6 C 49 % 1030,9 hPa 0,0 l/m 5,0 km/h (1 Bft) S 180 -4,3 C 6,2 C 2,3 km/h (1 Bft)
09.12.2013 12:55 5,6 C 49 % 1030,9 hPa 0,0 l/m 3,5 km/h (1 Bft) S-SO 157 -4,3 C 6,8 C 6,6 km/h (2 Bft)
09.12.2013 13:00 5,3 C 49 % 1030,9 hPa 0,0 l/m 2,7 km/h (1 Bft) S-SW 202 -4,5 C 6,7 C 1,9 km/h (1 Bft)
09.12.2013 13:05 5,1 C 49 % 1031,1 hPa 0,0 l/m 4,3 km/h (1 Bft) S 180 -4,7 C 6,3 C 6,4 km/h (2 Bft)
09.12.2013 13:10 5,2 C 48 % 1031,1 hPa 0,0 l/m 4,8 km/h (1 Bft) S-SW 202 -4,9 C 5,8 C 6,4 km/h (2 Bft)
09.12.2013 13:15 5,0 C 46 % 1031,1 hPa 0,0 l/m 5,6 km/h (1 Bft) S-SW 202 -5,6 C 5,6 C 7,6 km/h (2 Bft)
09.12.2013 13:20 4,7 C 48 % 1031,1 hPa 0,0 l/m 6,3 km/h (2 Bft) S-SO 157 -5,4 C 5,0 C 6,1 km/h (2 Bft)
09.12.2013 13:25 4,6 C 48 % 1030,9 hPa 0,0 l/m 6,4 km/h (2 Bft) S 180 -5,4 C 4,7 C 7,9 km/h (2 Bft)
09.12.2013 13:30 4,7 C 48 % 1030,9 hPa 0,0 l/m 6,1 km/h (2 Bft) S 180 -5,4 C 4,8 C 7,1 km/h (2 Bft)
09.12.2013 13:35 4,8 C 48 % 1030,9 hPa 0,0 l/m 6,3 km/h (2 Bft) S-SW 202 -5,3 C 4,9 C 6,4 km/h (2 Bft)
09.12.2013 13:40 4,7 C 48 % 1030,9 hPa 0,0 l/m 6,4 km/h (2 Bft) S-SW 202 -5,4 C 5,6 C 6,3 km/h (2 Bft)
09.12.2013 13:45 4,8 C 47 % 1030,9 hPa 0,0 l/m 6,4 km/h (2 Bft) S 180 -5,5 C 5,7 C 7,2 km/h (2 Bft)
09.12.2013 13:50 5,2 C 47 % 1030,9 hPa 0,0 l/m 6,3 km/h (2 Bft) S-SO 157 -5,2 C 5,9 C 7,2 km/h (2 Bft)
09.12.2013 13:55 5,6 C 48 % 1030,9 hPa 0,0 l/m 5,8 km/h (2 Bft) S-SW 202 -4,5 C 6,7 C 4,5 km/h (1 Bft)
09.12.2013 14:00 6,0 C 45 % 1030,9 hPa 0,0 l/m 5,3 km/h (1 Bft) S 180 -5,0 C 7,9 C 6,0 km/h (2 Bft)
09.12.2013 14:05 5,9 C 46 % 1030,8 hPa 0,0 l/m 4,8 km/h (1 Bft) S-SW 202 -4,8 C 8,3 C 4,8 km/h (1 Bft)
09.12.2013 14:10 5,7 C 46 % 1030,8 hPa 0,0 l/m 5,1 km/h (1 Bft) S 180 -5,0 C 8,1 C 6,1 km/h (2 Bft)
09.12.2013 14:15 5,5 C 46 % 1030,8 hPa 0,0 l/m 5,0 km/h (1 Bft) S-SW 202 -5,2 C 7,9 C 3,5 km/h (1 Bft)
09.12.2013 14:20 5,4 C 46 % 1030,8 hPa 0,0 l/m 5,1 km/h (1 Bft) S 180 -5,3 C 7,1 C 7,1 km/h (2 Bft)
09.12.2013 14:25 5,2 C 46 % 1030,9 hPa 0,0 l/m 5,1 km/h (1 Bft) S 180 -5,5 C 6,7 C 6,9 km/h (2 Bft)
09.12.2013 14:30 5,3 C 45 % 1030,9 hPa 0,0 l/m 6,1 km/h (2 Bft) S 180 -5,7 C 6,1 C 9,0 km/h (2 Bft)
09.12.2013 14:35 5,3 C 46 % 1030,9 hPa 0,0 l/m 6,0 km/h (2 Bft) S 180 -5,4 C 6,0 C 7,2 km/h (2 Bft)
09.12.2013 14:40 5,1 C 47 % 1030,9 hPa 0,0 l/m 5,3 km/h (1 Bft) S-SW 202 -5,3 C 6,3 C 7,2 km/h (2 Bft)
09.12.2013 14:45 5,1 C 47 % 1030,9 hPa 0,0 l/m 4,2 km/h (1 Bft) S 180 -5,3 C 6,8 C 4,5 km/h (1 Bft)
09.12.2013 14:50 5,0 C 48 % 1030,9 hPa 0,0 l/m 3,7 km/h (1 Bft) S-SW 202 -5,1 C 6,6 C 6,9 km/h (2 Bft)
09.12.2013 14:55 5,0 C 48 % 1030,9 hPa 0,0 l/m 3,9 km/h (1 Bft) S 180 -5,1 C 6,5 C 7,4 km/h (2 Bft)
09.12.2013 15:00 4,6 C 49 % 1030,9 hPa 0,0 l/m 4,8 km/h (1 Bft) S 180 -5,2 C 5,6 C 4,0 km/h (1 Bft)
09.12.2013 15:05 4,5 C 49 % 1030,7 hPa 0,0 l/m 4,7 km/h (1 Bft) S 180 -5,3 C 5,3 C 3,1 km/h (1 Bft)
09.12.2013 15:10 3,8 C 50 % 1030,7 hPa 0,0 l/m 3,4 km/h (1 Bft) S 180 -5,6 C 5,5 C 5,8 km/h (2 Bft)
09.12.2013 15:15 3,4 C 51 % 1030,7 hPa 0,0 l/m 2,3 km/h (1 Bft) S 180 -5,8 C 5,3 C 0,0 km/h (0 Bft)
09.12.2013 15:20 3,0 C 52 % 1030,7 hPa 0,0 l/m 1,0 km/h (0 Bft) S-SO 157 -5,9 C 4,5 C 0,0 km/h (0 Bft)
09.12.2013 15:25 2,8 C 53 % 1030,6 hPa 0,0 l/m 0,8 km/h (0 Bft) S-SO 157 -5,8 C 4,0 C 2,9 km/h (1 Bft)
09.12.2013 15:30 2,9 C 53 % 1030,6 hPa 0,0 l/m 2,6 km/h (1 Bft) N-NO 22 -5,7 C 3,7 C 3,7 km/h (1 Bft)
09.12.2013 15:35 3,0 C 51 % 1030,6 hPa 0,0 l/m 4,2 km/h (1 Bft) O 90 -6,1 C 2,6 C 6,0 km/h (2 Bft)
09.12.2013 15:40 2,8 C 55 % 1030,6 hPa 0,0 l/m 5,5 km/h (1 Bft) N 360 -5,3 C 1,9 C 6,0 km/h (2 Bft)
09.12.2013 15:45 2,7 C 56 % 1031,0 hPa 0,0 l/m 5,0 km/h (1 Bft) NO 45 -5,2 C 2,1 C 6,9 km/h (2 Bft)
09.12.2013 15:50 3,1 C 53 % 1031,0 hPa 0,0 l/m 4,2 km/h (1 Bft) NO 45 -5,5 C 2,4 C 2,7 km/h (1 Bft)
09.12.2013 15:55 3,0 C 54 % 1031,0 hPa 0,0 l/m 4,8 km/h (1 Bft) NO 45 -5,4 C 2,1 C 7,1 km/h (2 Bft)
09.12.2013 16:00 3,2 C 54 % 1031,0 hPa 0,0 l/m 5,3 km/h (1 Bft) NO 45 -5,2 C 2,4 C 4,0 km/h (1 Bft)
09.12.2013 16:05 3,3 C 53 % 1031,1 hPa 0,0 l/m 5,6 km/h (1 Bft) O-SO 112 -5,3 C 2,4 C 4,0 km/h (1 Bft)
09.12.2013 16:09 2,6 C 57 % 1031,1 hPa 0,0 l/m 1,8 km/h (1 Bft) O-SO 112 -5,0 C 3,4 C 2,6 km/h (1 Bft)
09.12.2013 16:14 2,3 C 58 % 1031,1 hPa 0,0 l/m 1,3 km/h (1 Bft) O-NO 67 -5,1 C 3,2 C 0,0 km/h (0 Bft)
09.12.2013 16:19 2,4 C 58 % 1031,7 hPa 0,0 l/m 1,0 km/h (0 Bft) O-NO 67 -5,0 C 3,0 C 0,0 km/h (0 Bft)
09.12.2013 16:24 2,1 C 59 % 1031,7 hPa 0,0 l/m 0,2 km/h (0 Bft) NO 45 -5,1 C 2,7 C 0,0 km/h (0 Bft)
09.12.2013 16:29 2,3 C 59 % 1031,7 hPa 0,0 l/m 1,1 km/h (1 Bft) O 90 -4,9 C 2,5 C 5,0 km/h (1 Bft)
09.12.2013 16:34 2,9 C 57 % 1031,7 hPa 0,0 l/m 3,5 km/h (1 Bft) NO 45 -4,8 C 2,1 C 5,3 km/h (1 Bft)
09.12.2013 16:39 2,9 C 57 % 1031,9 hPa 0,0 l/m 4,5 km/h (1 Bft) NO 45 -4,8 C 1,6 C 6,4 km/h (2 Bft)
09.12.2013 16:44 2,5 C 57 % 1031,9 hPa 0,0 l/m 4,7 km/h (1 Bft) O-NO 67 -5,1 C 1,5 C 4,8 km/h (1 Bft)
09.12.2013 16:49 2,3 C 58 % 1031,9 hPa 0,0 l/m 3,7 km/h (1 Bft) O-NO 67 -5,1 C 2,0 C 0,0 km/h (0 Bft)
09.12.2013 16:54 1,9 C 59 % 1031,9 hPa 0,0 l/m 0,8 km/h (0 Bft) O 90 -5,2 C 2,5 C 2,3 km/h (1 Bft)
09.12.2013 16:59 1,6 C 61 % 1032,0 hPa 0,0 l/m 0,0 km/h (0 Bft) O 90 -5,1 C 2,3 C 0,0 km/h (0 Bft)
09.12.2013 17:04 1,5 C 63 % 1032,0 hPa 0,0 l/m 1,1 km/h (1 Bft) O 90 -4,8 C 2,0 C 3,1 km/h (1 Bft)
09.12.2013 17:09 1,7 C 65 % 1032,0 hPa 0,0 l/m 1,6 km/h (1 Bft) NO 45 -4,2 C 2,0 C 0,0 km/h (0 Bft)
09.12.2013 17:14 2,5 C 59 % 1032,0 hPa 0,0 l/m 3,4 km/h (1 Bft) O 90 -4,7 C 1,8 C 5,8 km/h (2 Bft)
09.12.2013 17:19 2,6 C 59 % 1032,1 hPa 0,0 l/m 4,5 km/h (1 Bft) O 90 -4,6 C 1,6 C 5,3 km/h (1 Bft)
09.12.2013 17:24 2,3 C 59 % 1032,1 hPa 0,0 l/m 3,7 km/h (1 Bft) W 270 -4,9 C 2,2 C 1,8 km/h (1 Bft)
09.12.2013 17:29 2,3 C 59 % 1032,1 hPa 0,0 l/m 3,7 km/h (1 Bft) W 270 -4,9 C 2,2 C 1,8 km/h (1 Bft)
09.12.2013 17:30 2,1 C 62 % 1032,1 hPa 0,0 l/m 2,1 km/h (1 Bft) N-NO 22 -4,4 C 2,7 C 1,9 km/h (1 Bft)
09.12.2013 17:35 1,8 C 63 % 1032,1 hPa 0,0 l/m 0,3 km/h (0 Bft) N 360 -4,5 C 2,6 C 0,0 km/h (0 Bft)
09.12.2013 17:40 1,7 C 66 % 1032,1 hPa 0,0 l/m 0,8 km/h (0 Bft) N-NO 22 -4,0 C 2,4 C 2,9 km/h (1 Bft)
09.12.2013 17:45 1,7 C 66 % 1032,1 hPa 0,0 l/m 2,1 km/h (1 Bft) N-NO 22 -4,0 C 2,2 C 0,0 km/h (0 Bft)
09.12.2013 17:50 1,7 C 67 % 1032,1 hPa 0,0 l/m 1,9 km/h (1 Bft) NO 45 -3,8 C 2,1 C 2,6 km/h (1 Bft)
09.12.2013 17:55 1,8 C 66 % 1032,1 hPa 0,0 l/m 1,6 km/h (1 Bft) NO 45 -3,9 C 2,1 C 2,6 km/h (1 Bft)
09.12.2013 18:00 1,8 C 66 % 1032,1 hPa 0,0 l/m 1,6 km/h (1 Bft) NO 45 -3,9 C 2,1 C 2,6 km/h (1 Bft)
09.12.2013 18:05 2,0 C 65 % 1032,1 hPa 0,0 l/m 2,1 km/h (1 Bft) NO 45 -3,9 C 2,2 C 2,9 km/h (1 Bft)
09.12.2013 18:10 2,2 C 64 % 1032,1 hPa 0,0 l/m 1,4 km/h (1 Bft) O-NO 67 -3,9 C 2,4 C 1,9 km/h (1 Bft)
09.12.2013 18:15 1,9 C 65 % 1032,1 hPa 0,0 l/m 1,9 km/h (1 Bft) S-SO 157 -4,0 C 2,4 C 4,5 km/h (1 Bft)
09.12.2013 18:20 1,8 C 65 % 1032,1 hPa 0,0 l/m 2,9 km/h (1 Bft) S-SO 157 -4,1 C 2,1 C 3,5 km/h (1 Bft)
09.12.2013 18:25 2,0 C 64 % 1032,2 hPa 0,0 l/m 3,1 km/h (1 Bft) O 90 -4,1 C 1,9 C 4,7 km/h (1 Bft)
09.12.2013 18:30 2,2 C 63 % 1032,2 hPa 0,0 l/m 3,9 km/h (1 Bft) O 90 -4,1 C 1,7 C 6,1 km/h (2 Bft)
09.12.2013 18:35 2,1 C 63 % 1032,2 hPa 0,0 l/m 5,0 km/h (1 Bft) O 90 -4,2 C 1,2 C 6,3 km/h (2 Bft)
09.12.2013 18:40 2,0 C 64 % 1032,2 hPa 0,0 l/m 5,0 km/h (1 Bft) O 90 -4,1 C 1,2 C 3,2 km/h (1 Bft)
09.12.2013 18:45 2,0 C 64 % 1032,4 hPa 0,0 l/m 3,2 km/h (1 Bft) O-NO 67 -4,1 C 2,1 C 0,0 km/h (0 Bft)
09.12.2013 18:50 2,2 C 64 % 1032,4 hPa 0,0 l/m 1,9 km/h (1 Bft) O 90 -3,9 C 2,4 C 4,8 km/h (1 Bft)
09.12.2013 18:55 2,2 C 63 % 1032,4 hPa 0,0 l/m 2,9 km/h (1 Bft) O 90 -4,1 C 2,2 C 6,8 km/h (2 Bft)
09.12.2013 19:00 2,2 C 63 % 1032,4 hPa 0,0 l/m 4,5 km/h (1 Bft) O-NO 67 -4,1 C 1,4 C 4,0 km/h (1 Bft)
09.12.2013 19:05 2,1 C 63 % 1032,4 hPa 0,0 l/m 4,7 km/h (1 Bft) O-NO 67 -4,2 C 1,4 C 4,8 km/h (1 Bft)
09.12.2013 19:10 2,2 C 63 % 1032,4 hPa 0,0 l/m 3,9 km/h (1 Bft) O 90 -4,1 C 1,7 C 2,6 km/h (1 Bft)
09.12.2013 19:15 2,3 C 63 % 1032,4 hPa 0,0 l/m 3,1 km/h (1 Bft) O-SO 112 -4,0 C 2,2 C 3,2 km/h (1 Bft)
09.12.2013 19:20 2,3 C 63 % 1032,4 hPa 0,0 l/m 2,9 km/h (1 Bft) O-SO 112 -4,0 C 2,3 C 6,9 km/h (2 Bft)
09.12.2013 19:25 2,4 C 62 % 1032,3 hPa 0,0 l/m 3,2 km/h (1 Bft) S-SO 157 -4,1 C 2,3 C 3,5 km/h (1 Bft)
09.12.2013 19:30 2,6 C 60 % 1032,3 hPa 0,0 l/m 4,3 km/h (1 Bft) O-SO 112 -4,4 C 1,8 C 5,3 km/h (1 Bft)
09.12.2013 19:35 2,5 C 61 % 1032,3 hPa 0,0 l/m 4,8 km/h (1 Bft) O 90 -4,2 C 1,9 C 5,5 km/h (1 Bft)
09.12.2013 19:40 2,5 C 62 % 1032,3 hPa 0,0 l/m 3,1 km/h (1 Bft) NO 45 -4,0 C 2,9 C 2,7 km/h (1 Bft)
09.12.2013 19:45 2,5 C 62 % 1032,3 hPa 0,0 l/m 2,6 km/h (1 Bft) NO 45 -4,0 C 3,0 C 4,5 km/h (1 Bft)
09.12.2013 19:50 2,3 C 63 % 1032,3 hPa 0,0 l/m 2,3 km/h (1 Bft) S 180 -4,0 C 3,0 C 3,4 km/h (1 Bft)
09.12.2013 19:55 2,3 C 63 % 1032,3 hPa 0,0 l/m 2,1 km/h (1 Bft) O 90 -4,0 C 2,9 C 2,3 km/h (1 Bft)
09.12.2013 20:00 2,2 C 64 % 1032,3 hPa 0,0 l/m 1,1 km/h (1 Bft) O 90 -3,9 C 2,8 C 1,6 km/h (1 Bft)
09.12.2013 20:05 2,2 C 64 % 1032,2 hPa 0,0 l/m 0,5 km/h (0 Bft) NO 45 -3,9 C 2,8 C 0,0 km/h (0 Bft)
09.12.2013 20:10 2,0 C 65 % 1032,2 hPa 0,0 l/m 0,8 km/h (0 Bft) S-SO 157 -3,9 C 2,6 C 2,6 km/h (1 Bft)
09.12.2013 20:15 1,9 C 65 % 1032,2 hPa 0,0 l/m 0,5 km/h (0 Bft) S 180 -4,0 C 2,6 C 0,0 km/h (0 Bft)
09.12.2013 20:20 1,8 C 66 % 1032,2 hPa 0,0 l/m 0,6 km/h (0 Bft) S 180 -3,9 C 2,5 C 4,3 km/h (1 Bft)
09.12.2013 20:25 1,9 C 67 % 1032,0 hPa 0,0 l/m 1,0 km/h (0 Bft) O-SO 112 -3,6 C 2,5 C 2,4 km/h (1 Bft)
09.12.2013 20:30 1,9 C 66 % 1032,0 hPa 0,0 l/m 1,1 km/h (1 Bft) NO 45 -3,8 C 2,5 C 0,0 km/h (0 Bft)
09.12.2013 20:35 1,9 C 67 % 1032,0 hPa 0,0 l/m 1,1 km/h (1 Bft) W 270 -3,6 C 2,5 C 2,4 km/h (1 Bft)
09.12.2013 20:40 2,0 C 66 % 1032,0 hPa 0,0 l/m 0,5 km/h (0 Bft) W 270 -3,7 C 2,5 C 0,0 km/h (0 Bft)
09.12.2013 20:45 1,9 C 67 % 1032,1 hPa 0,0 l/m 0,2 km/h (0 Bft) W 270 -3,6 C 2,4 C 0,0 km/h (0 Bft)
09.12.2013 20:50 2,0 C 66 % 1032,1 hPa 0,0 l/m 0,3 km/h (0 Bft) W 270 -3,7 C 2,5 C 0,0 km/h (0 Bft)
09.12.2013 20:55 2,1 C 66 % 1032,1 hPa 0,0 l/m 0,3 km/h (0 Bft) W 270 -3,6 C 2,5 C 0,0 km/h (0 Bft)
09.12.2013 21:00 2,1 C 65 % 1032,1 hPa 0,0 l/m 0,3 km/h (0 Bft) W 270 -3,8 C 2,6 C 1,6 km/h (1 Bft)
09.12.2013 21:05 2,1 C 65 % 1032,1 hPa 0,0 l/m 0,6 km/h (0 Bft) W 270 -3,8 C 2,6 C 0,0 km/h (0 Bft)
09.12.2013 21:10 1,9 C 66 % 1032,1 hPa 0,0 l/m 0,5 km/h (0 Bft) W 270 -3,8 C 2,6 C 0,0 km/h (0 Bft)
09.12.2013 21:15 2,0 C 66 % 1032,1 hPa 0,0 l/m 0,0 km/h (0 Bft) W 270 -3,7 C 2,5 C 0,0 km/h (0 Bft)
09.12.2013 21:20 1,9 C 67 % 1032,1 hPa 0,0 l/m 0,5 km/h (0 Bft) W-NW 292 -3,6 C 2,4 C 0,0 km/h (0 Bft)
09.12.2013 21:25 1,8 C 67 % 1032,5 hPa 0,0 l/m 0,5 km/h (0 Bft) W-NW 292 -3,7 C 2,4 C 0,0 km/h (0 Bft)
09.12.2013 21:30 1,8 C 67 % 1032,5 hPa 0,0 l/m 0,8 km/h (0 Bft) O-SO 112 -3,7 C 2,3 C 4,7 km/h (1 Bft)
09.12.2013 21:35 2,2 C 66 % 1032,5 hPa 0,0 l/m 2,4 km/h (1 Bft) O 90 -3,5 C 2,4 C 7,1 km/h (2 Bft)
09.12.2013 21:40 2,3 C 65 % 1032,5 hPa 0,0 l/m 4,7 km/h (1 Bft) O-SO 112 -3,6 C 1,5 C 5,1 km/h (1 Bft)
09.12.2013 21:45 2,0 C 67 % 1032,3 hPa 0,0 l/m 4,0 km/h (1 Bft) NO 45 -3,5 C 1,8 C 0,0 km/h (0 Bft)
09.12.2013 21:50 1,7 C 68 % 1032,3 hPa 0,0 l/m 1,1 km/h (1 Bft) NO 45 -3,6 C 2,4 C 0,0 km/h (0 Bft)
09.12.2013 21:55 1,7 C 69 % 1032,3 hPa 0,0 l/m 0,2 km/h (0 Bft) NO 45 -3,4 C 2,3 C 2,6 km/h (1 Bft)
09.12.2013 22:00 2,0 C 68 % 1032,3 hPa 0,0 l/m 1,4 km/h (1 Bft) O 90 -3,3 C 2,2 C 4,3 km/h (1 Bft)
09.12.2013 22:05 2,2 C 67 % 1032,4 hPa 0,0 l/m 3,2 km/h (1 Bft) O 90 -3,3 C 1,9 C 6,1 km/h (2 Bft)
09.12.2013 22:10 2,3 C 66 % 1032,4 hPa 0,0 l/m 4,0 km/h (1 Bft) O 90 -3,4 C 1,7 C 4,5 km/h (1 Bft)
09.12.2013 22:15 2,5 C 66 % 1032,4 hPa 0,0 l/m 4,0 km/h (1 Bft) O-NO 67 -3,2 C 1,8 C 5,5 km/h (1 Bft)
09.12.2013 22:20 2,6 C 65 % 1032,4 hPa 0,0 l/m 2,7 km/h (1 Bft) O 90 -3,3 C 2,8 C 0,0 km/h (0 Bft)
09.12.2013 22:25 2,6 C 64 % 1032,4 hPa 0,0 l/m 1,4 km/h (1 Bft) O 90 -3,5 C 2,8 C 1,6 km/h (1 Bft)
09.12.2013 22:30 2,2 C 66 % 1032,4 hPa 0,0 l/m 0,3 km/h (0 Bft) O-SO 112 -3,5 C 2,7 C 5,3 km/h (1 Bft)
09.12.2013 22:35 2,3 C 66 % 1032,4 hPa 0,0 l/m 1,4 km/h (1 Bft) O-SO 112 -3,4 C 2,7 C 2,1 km/h (1 Bft)
09.12.2013 22:40 2,4 C 65 % 1032,4 hPa 0,0 l/m 1,6 km/h (1 Bft) N-NO 22 -3,5 C 2,9 C 1,6 km/h (1 Bft)
09.12.2013 22:45 2,2 C 66 % 1032,8 hPa 0,0 l/m 0,5 km/h (0 Bft) N-NO 22 -3,5 C 2,8 C 0,0 km/h (0 Bft)
09.12.2013 22:50 2,2 C 66 % 1032,8 hPa 0,0 l/m 0,5 km/h (0 Bft) O-NO 67 -3,5 C 2,7 C 3,1 km/h (1 Bft)
09.12.2013 22:55 2,2 C 66 % 1032,8 hPa 0,0 l/m 0,8 km/h (0 Bft) O-NO 67 -3,5 C 2,6 C 0,0 km/h (0 Bft)
09.12.2013 23:00 2,2 C 66 % 1032,8 hPa 0,0 l/m 0,6 km/h (0 Bft) NO 45 -3,5 C 2,6 C 0,0 km/h (0 Bft)
09.12.2013 23:05 2,1 C 66 % 1032,6 hPa 0,0 l/m 0,2 km/h (0 Bft) NO 45 -3,6 C 2,6 C 0,0 km/h (0 Bft)
09.12.2013 23:10 1,9 C 67 % 1032,6 hPa 0,0 l/m 0,0 km/h (0 Bft) O-SO 112 -3,6 C 2,6 C 0,0 km/h (0 Bft)
09.12.2013 23:15 1,8 C 67 % 1032,6 hPa 0,0 l/m 0,0 km/h (0 Bft) O-SO 112 -3,7 C 2,6 C 0,0 km/h (0 Bft)
09.12.2013 23:20 1,9 C 68 % 1032,6 hPa 0,0 l/m 0,2 km/h (0 Bft) O-SO 112 -3,4 C 2,4 C 0,0 km/h (0 Bft)
09.12.2013 23:25 1,8 C 68 % 1032,9 hPa 0,0 l/m 0,2 km/h (0 Bft) O-SO 112 -3,5 C 2,4 C 0,0 km/h (0 Bft)
09.12.2013 23:30 1,9 C 68 % 1032,9 hPa 0,0 l/m 0,8 km/h (0 Bft) O-SO 112 -3,4 C 2,3 C 5,0 km/h (1 Bft)
09.12.2013 23:35 2,1 C 67 % 1032,9 hPa 0,0 l/m 2,7 km/h (1 Bft) O-SO 112 -3,4 C 2,2 C 6,4 km/h (2 Bft)
09.12.2013 23:40 1,9 C 69 % 1032,9 hPa 0,0 l/m 4,5 km/h (1 Bft) O 90 -3,2 C 1,3 C 3,7 km/h (1 Bft)
09.12.2013 23:45 2,0 C 68 % 1032,9 hPa 0,0 l/m 4,0 km/h (1 Bft) O 90 -3,3 C 1,4 C 2,6 km/h (1 Bft)
09.12.2013 23:50 1,9 C 69 % 1032,9 hPa 0,0 l/m 2,1 km/h (1 Bft) O 90 -3,2 C 2,3 C 0,0 km/h (0 Bft)
09.12.2013 23:55 1,7 C 69 % 1032,9 hPa 0,0 l/m 0,6 km/h (0 Bft) O 90 -3,4 C 2,2 C 0,0 km/h (0 Bft)
_ Min-Zeit 06:30 14:30 05:20 - 23:15 - - 05:50 01:15 23:55
Minimum _ -5,6 C 45 % 1029,6 hPa - 0,0 km/h (0 Bft) - - -8,4 C -7,4 C 0,0 km/h (0 Bft)
_ Max-Zeit 14:00 00:45 23:55 23:55 01:15 - - 11:05 14:05 01:10
Maximum _ 6,0 C 87 % 1032,9 hPa 0,0 l/m 9,7 km/h
O-SO (2 Bft)
- - -2,6 C 8,3 C 17,4 km/h
O-SO (3 Bft)
Durchschnitt _ 0,5 C 68 % 1031,0 hPa #0,0 l/m 3,2 km/h (1 Bft) O - -4,9 C 0,0 C 3,9 km/h (1 Bft)